�N����,����,�~����,�C��,���x,�C��,����,���ϕ���,�ő�u�ԕ���,�ő厞����,���˗�,�I�_���x,�n�����x,�ő啗���N��,DTYPE
"20/09/09","00:10",0.0,20.8,79.4,1011.2,307.7,0.5,1.0,292.7,0.00,17.1,25.2,"00:05:36",1
"20/09/09","00:20",0.0,20.4,80.1,1010.7,302.8,0.6,1.8,326.4,0.00,16.9,25.3,"00:18:24",1
"20/09/09","00:30",0.0,20.2,81.1,1010.9,308.9,0.8,1.9,323.8,0.00,16.9,25.2,"00:24:00",1
"20/09/09","00:40",0.0,20.1,82.1,1010.4,326.1,0.8,1.4,332.0,0.00,17.0,25.2,"00:36:48",1
"20/09/09","00:50",0.0,20.0,83.2,1010.9,325.1,0.7,1.8,335.2,0.00,17.1,25.2,"00:46:16",1
"20/09/09","01:00",0.0,19.9,84.2,1011.2,325.3,1.2,2.0,318.8,0.00,17.2,25.0,"00:52:56",1
"20/09/09","01:10",0.0,19.6,85.2,1010.7,301.5,0.6,1.6,319.9,0.00,17.1,24.9,"01:09:36",1
"20/09/09","01:20",0.0,19.8,85.9,1010.9,336.2,1.1,1.8,346.6,0.00,17.4,24.9,"01:15:20",1
"20/09/09","01:30",0.0,19.7,86.4,1010.9,325.1,1.1,2.1,329.4,0.00,17.4,24.7,"01:23:04",1
"20/09/09","01:40",0.0,19.4,86.8,1011.2,302.3,0.8,1.7,331.4,0.00,17.2,24.8,"01:38:08",1
"20/09/09","01:50",0.0,19.5,87.0,1011.2,328.3,0.7,1.4,318.6,0.00,17.3,24.8,"01:40:32",1
"20/09/09","02:00",0.0,19.3,87.3,1011.2,283.5,0.6,1.4,320.9,0.00,17.2,24.5,"01:59:12",1
"20/09/09","02:10",0.0,19.2,87.4,1010.9,308.8,0.7,1.4,313.8,0.00,17.1,24.7,"02:01:44",1
"20/09/09","02:20",0.0,19.1,87.6,1011.2,295.7,0.6,1.2,301.8,0.00,17.0,24.4,"02:12:56",1
"20/09/09","02:30",0.0,18.8,87.9,1010.7,284.8,0.6,1.4,311.8,0.00,16.8,24.6,"02:20:02",1
"20/09/09","02:40",0.0,18.9,88.3,1010.9,330.3,1.3,2.0,336.3,0.00,17.0,24.3,"02:31:20",1
"20/09/09","02:50",0.0,19.1,88.6,1010.9,336.3,0.7,2.0,326.1,0.00,17.2,24.2,"02:40:24",1
"20/09/09","03:00",0.0,18.9,88.8,1010.7,289.4,1.0,1.3,322.2,0.00,17.1,24.4,"02:53:12",1
"20/09/09","03:10",0.0,18.8,89.0,1011.2,303.8,1.1,1.8,334.5,0.00,17.0,24.4,"03:09:12",1
"20/09/09","03:20",0.0,19.0,89.1,1010.7,304.5,1.2,2.0,329.8,0.00,17.2,24.3,"03:11:20",1
"20/09/09","03:30",0.0,19.1,88.8,1010.4,294.8,1.1,2.0,334.6,0.00,17.2,24.2,"03:29:04",1
"20/09/09","03:40",0.0,19.2,88.5,1010.4,302.9,1.2,2.0,297.8,0.00,17.3,24.2,"03:30:32",1
"20/09/09","03:50",0.0,19.4,88.1,1010.7,293.4,0.7,1.4,312.7,0.00,17.4,24.1,"03:41:12",1
"20/09/09","04:00",0.0,19.4,88.0,1010.4,309.0,0.5,1.3,319.6,0.00,17.4,24.0,"03:50:56",1
"20/09/09","04:10",0.0,19.5,87.6,1010.4,309.5,1.0,1.3,329.6,0.00,17.4,24.2,"04:00:08",1
"20/09/09","04:20",0.0,19.5,87.3,1010.7,306.6,1.1,1.7,330.1,0.00,17.4,24.1,"04:17:52",1
"20/09/09","04:30",0.0,20.1,87.1,1010.7,332.8,1.2,1.6,341.8,0.00,17.9,24.2,"04:24:08",1
"20/09/09","04:40",0.0,20.1,87.0,1010.9,356.9,0.8,1.8,312.1,0.00,17.9,24.2,"04:38:48",1
"20/09/09","04:50",0.0,20.0,87.1,1010.2,313.3,1.0,1.4,304.2,0.00,17.8,24.0,"04:40:08",1
"20/09/09","05:00",0.0,20.0,87.2,1010.4,306.3,1.0,1.6,319.5,0.00,17.8,24.0,"04:57:44",1
"20/09/09","05:10",0.0,19.9,87.4,1010.7,309.6,1.1,1.7,311.9,0.00,17.8,23.9,"05:01:20",1
"20/09/09","05:20",0.0,20.1,87.4,1010.4,310.8,0.7,1.3,331.7,0.00,18.0,24.0,"05:11:52",1
"20/09/09","05:30",0.0,20.2,87.4,1010.4,317.8,0.8,1.8,314.6,0.00,18.1,24.0,"05:28:56",1
"20/09/09","05:40",0.0,20.3,87.5,1010.2,316.1,1.2,1.8,331.9,0.00,18.2,24.1,"05:30:48",1
"20/09/09","05:50",0.0,20.3,87.6,1010.4,304.7,0.7,1.1,314.1,0.00,18.2,24.3,"05:45:36",1
"20/09/09","06:00",0.0,20.3,87.8,1010.4,333.3,1.1,1.6,329.9,0.00,18.3,23.9,"05:54:48",1
"20/09/09","06:10",0.0,20.7,87.8,1010.4,309.0,1.1,1.6,323.2,0.00,18.6,24.1,"06:01:44",1
"20/09/09","06:20",0.0,20.8,87.7,1010.2,292.7,1.1,1.7,289.3,0.00,18.7,24.2,"06:15:28",1
"20/09/09","06:30",0.0,20.9,87.3,1010.7,271.6,1.0,1.4,310.2,0.00,18.8,24.1,"06:29:44",1
"20/09/09","06:40",0.0,21.0,86.9,1010.7,301.8,1.0,1.7,316.3,0.01,18.8,24.2,"06:39:04",1
"20/09/09","06:50",0.0,21.5,86.6,1010.4,293.6,0.8,1.7,335.8,0.02,19.2,24.0,"06:40:24",1
"20/09/09","07:00",0.0,21.7,86.2,1010.4,280.0,0.2,0.8,276.0,0.02,19.3,24.2,"06:50:08",1
"20/09/09","07:10",0.0,21.8,85.8,1010.7,320.5,1.3,1.9,322.2,0.03,19.4,24.1,"07:06:40",1
"20/09/09","07:20",0.0,22.0,85.4,1010.9,303.4,1.0,1.4,323.2,0.03,19.5,24.5,"07:10:08",1
"20/09/09","07:30",0.0,22.0,84.4,1011.2,319.1,1.5,2.6,317.7,0.04,19.3,24.2,"07:21:44",1
"20/09/09","07:40",0.0,22.3,83.6,1010.9,312.8,1.1,1.8,318.0,0.04,19.4,24.3,"07:32:00",1
"20/09/09","07:50",0.0,22.6,83.1,1010.7,291.3,0.7,1.4,312.2,0.05,19.6,24.5,"07:41:52",1
"20/09/09","08:00",0.0,23.0,82.5,1010.7,278.6,0.6,1.7,333.3,0.07,19.9,24.5,"07:59:52",1
"20/09/09","08:10",0.0,23.4,81.4,1010.7,304.3,0.8,1.4,335.6,0.11,20.1,24.5,"08:00:56",1
"20/09/09","08:20",0.0,24.4,80.4,1010.9,280.5,0.6,1.7,312.0,0.22,20.8,24.4,"08:18:08",1
"20/09/09","08:30",0.0,25.2,75.3,1010.7,211.3,0.7,1.4,216.7,0.23,20.6,24.7,"08:23:04",1
"20/09/09","08:40",0.0,26.2,72.9,1010.4,149.0,0.3,1.1,217.9,0.18,21.0,24.8,"08:36:40",1
"20/09/09","08:50",0.0,25.8,69.7,1010.2,117.1,0.5,1.0,111.7,0.07,19.9,25.0,"08:43:04",1
"20/09/09","09:00",0.0,26.0,69.7,1010.2,168.9,0.6,1.1,134.1,0.17,20.1,25.0,"08:58:24",1
"20/09/09","09:10",0.0,26.1,68.5,1010.0,176.2,0.6,1.4,93.0,0.13,19.9,25.1,"09:06:16",1
"20/09/09","09:20",0.0,26.2,69.0,1009.7,199.5,0.5,1.2,127.7,0.13,20.1,25.2,"09:17:36",1
"20/09/09","09:30",0.0,26.4,68.3,1009.7,248.9,0.2,1.4,344.7,0.11,20.1,25.4,"09:27:12",1
"20/09/09","09:40",0.0,26.3,67.2,1009.3,290.3,0.7,1.8,342.8,0.12,19.8,25.4,"09:36:24",1
"20/09/09","09:50",0.0,26.6,68.0,1009.0,347.9,0.7,1.7,342.9,0.24,20.2,25.8,"09:44:16",1
"20/09/09","10:00",0.0,27.3,64.9,1008.1,215.8,0.5,1.4,335.9,0.27,20.2,25.6,"09:59:36",1
"20/09/09","10:10",0.0,27.3,64.0,1008.6,328.9,0.7,1.6,349.7,0.17,19.9,25.9,"10:00:24",1
"20/09/09","10:20",0.0,26.9,65.2,1008.3,290.0,0.7,1.8,238.0,0.14,19.9,26.0,"10:14:56",1
"20/09/09","10:30",0.0,26.7,66.5,1008.6,287.1,1.2,2.7,337.4,0.14,20.0,25.9,"10:23:12",1
"20/09/09","10:40",0.0,26.7,67.1,1008.3,264.5,1.0,2.0,239.5,0.15,20.1,26.1,"10:30:56",1
"20/09/09","10:50",0.0,26.8,67.0,1008.1,297.9,1.0,2.4,342.1,0.11,20.2,26.0,"10:44:32",1
"20/09/09","11:00",0.0,27.0,67.6,1007.8,260.4,0.6,1.2,312.1,0.13,20.5,26.1,"10:50:56",1
"20/09/09","11:10",0.0,27.5,66.9,1008.1,294.3,0.6,1.6,318.0,0.21,20.8,26.2,"11:00:02",1
"20/09/09","11:20",0.0,27.6,64.2,1008.3,330.1,1.2,3.1,353.1,0.26,20.3,26.4,"11:14:08",1
"20/09/09","11:30",0.0,28.4,62.4,1008.3,295.8,0.8,1.7,312.7,0.35,20.6,26.5,"11:20:08",1
"20/09/09","11:40",0.0,28.9,58.9,1008.8,332.2,0.8,2.1,345.3,0.31,20.1,26.7,"11:37:52",1
"20/09/09","11:50",0.0,28.6,58.2,1008.8,219.4,1.0,2.5,219.6,0.19,19.6,26.7,"11:41:44",1
"20/09/09","12:00",0.0,27.8,58.8,1008.6,222.7,1.1,2.8,235.5,0.09,19.0,26.6,"11:59:12",1
"20/09/09","12:10",0.0,28.0,59.7,1008.3,297.1,0.8,2.0,332.4,0.13,19.5,26.8,"12:08:24",1
"20/09/09","12:20",0.0,27.6,60.9,1007.8,288.6,0.7,1.9,309.7,0.08,19.4,26.8,"12:10:08",1
"20/09/09","12:30",0.0,27.2,62.8,1007.8,252.8,0.7,2.1,230.1,0.04,19.5,26.8,"12:29:44",1
"20/09/09","12:40",0.0,26.8,65.5,1007.6,276.4,1.0,3.3,300.2,0.03,19.8,26.9,"12:38:56",1
"20/09/09","12:50",0.0,26.0,68.1,1007.4,261.2,1.5,2.7,309.3,0.05,19.7,26.7,"12:44:00",1
"20/09/09","13:00",0.0,25.6,72.4,1007.1,353.1,1.0,2.1,352.8,0.09,20.3,26.6,"12:52:40",1
"20/09/09","13:10",0.2,25.5,75.7,1007.1,292.1,1.0,2.1,343.6,0.12,20.9,26.7,"13:03:12",1
"20/09/09","13:20",0.4,24.9,78.8,1007.4,299.1,1.2,3.7,335.0,0.13,21.0,26.6,"13:16:32",1
"20/09/09","13:30",0.0,24.8,80.5,1007.1,326.4,0.5,1.7,339.9,0.15,21.3,26.7,"13:20:56",1
"20/09/09","13:40",0.0,24.8,81.4,1007.1,80.0,0.3,1.3,62.9,0.07,21.4,26.5,"13:34:24",1
"20/09/09","13:50",0.6,24.7,81.9,1007.6,281.6,0.3,1.0,210.4,0.04,21.4,26.5,"13:44:32",1
"20/09/09","14:00",0.0,24.7,83.1,1007.1,15.1,0.7,1.6,62.6,0.07,21.7,26.6,"13:56:00",1
"20/09/09","14:10",0.0,24.5,84.2,1007.4,354.7,0.6,1.4,356.4,0.06,21.7,26.5,"14:00:24",1
"20/09/09","14:20",0.0,24.4,85.0,1006.9,303.0,0.5,1.3,335.9,0.07,21.8,26.5,"14:10:16",1
"20/09/09","14:30",0.2,24.2,85.5,1006.9,334.5,0.5,1.1,347.7,0.07,21.7,26.6,"14:25:44",1
"20/09/09","14:40",0.0,24.4,86.0,1006.7,60.3,0.6,1.1,59.3,0.06,21.9,26.6,"14:34:40",1
"20/09/09","14:50",0.0,24.3,86.6,1006.2,56.9,0.5,1.2,44.7,0.07,22.0,26.6,"14:47:20",1
"20/09/09","15:00",0.0,24.3,86.7,1006.0,6.4,0.8,1.9,357.0,0.13,22.0,26.5,"14:56:00",1
"20/09/09","15:10",0.0,24.6,86.5,1006.0,337.4,0.7,1.6,334.0,0.12,22.2,26.5,"15:00:32",1
"20/09/09","15:20",0.0,24.7,86.2,1005.7,222.2,0.6,2.1,119.4,0.09,22.3,26.5,"15:17:04",1
"20/09/09","15:30",0.0,24.3,85.5,1005.5,94.4,1.1,2.6,101.5,0.06,21.8,26.5,"15:24:40",1
"20/09/09","15:40",0.0,24.4,85.1,1006.0,10.4,0.6,1.6,17.6,0.04,21.8,26.3,"15:36:00",1
"20/09/09","15:50",0.0,24.3,84.5,1006.2,11.7,0.7,1.6,49.4,0.02,21.6,26.5,"15:47:52",1
"20/09/09","16:00",0.0,24.3,84.3,1006.2,351.9,0.7,1.7,316.8,0.02,21.5,26.3,"15:51:28",1
"20/09/09","16:10",0.0,24.4,84.4,1006.0,355.0,0.8,1.7,350.3,0.03,21.6,26.4,"16:02:40",1
"20/09/09","16:20",0.0,24.4,84.6,1006.0,285.8,0.8,1.8,324.2,0.04,21.7,26.2,"16:10:16",1
"20/09/09","16:30",0.0,24.4,85.0,1005.7,288.4,0.8,1.6,332.3,0.06,21.8,26.3,"16:21:52",1
"20/09/09","16:40",0.0,24.4,85.4,1006.4,262.8,0.8,2.1,238.7,0.04,21.8,26.2,"16:38:40",1
"20/09/09","16:50",0.0,24.1,85.8,1006.2,268.6,1.0,1.8,232.8,0.02,21.6,26.1,"16:44:24",1
"20/09/09","17:00",0.0,24.1,86.2,1006.0,283.4,0.5,1.1,321.6,0.01,21.7,26.2,"16:53:20",1
"20/09/09","17:10",0.0,24.2,86.5,1006.0,303.7,0.5,2.2,342.3,0.02,21.8,26.2,"17:09:36",1
"20/09/09","17:20",0.0,24.2,86.7,1006.0,314.4,1.1,1.9,340.4,0.02,21.9,26.1,"17:10:16",1
"20/09/09","17:30",0.0,24.0,86.9,1006.0,295.7,0.7,2.1,325.0,0.00,21.7,26.0,"17:25:28",1
"20/09/09","17:40",0.0,23.9,87.2,1006.2,285.6,0.5,1.0,298.0,0.01,21.7,26.0,"17:39:52",1
"20/09/09","17:50",0.0,23.8,87.3,1006.2,333.0,1.1,1.9,341.8,0.01,21.6,25.9,"17:49:12",1
"20/09/09","18:00",0.0,23.7,87.4,1006.4,295.7,0.7,1.7,308.2,0.01,21.5,26.0,"17:50:32",1
"20/09/09","18:10",0.0,23.6,87.4,1006.4,287.2,0.6,1.1,329.6,0.00,21.4,26.2,"18:02:32",1
"20/09/09","18:20",0.0,23.5,87.5,1006.9,286.8,0.7,1.0,319.3,0.00,21.3,26.1,"18:14:08",1
"20/09/09","18:30",0.0,23.4,87.7,1006.7,290.6,0.8,1.6,310.3,0.00,21.3,25.9,"18:22:48",1
"20/09/09","18:40",0.0,23.1,87.9,1006.7,287.1,0.7,1.2,290.4,0.00,21.0,25.9,"18:32:00",1
"20/09/09","18:50",0.0,23.0,88.2,1006.9,298.1,0.8,1.6,329.4,0.00,21.0,25.7,"18:49:52",1
"20/09/09","19:00",0.0,22.9,88.4,1006.9,295.8,1.0,1.4,313.7,0.00,20.9,25.8,"18:51:12",1
"20/09/09","19:10",0.0,22.8,88.7,1006.7,298.0,1.1,2.4,334.2,0.00,20.9,25.7,"19:09:12",1
"20/09/09","19:20",0.0,22.7,88.9,1006.9,287.6,0.8,1.2,304.3,0.00,20.8,25.6,"19:16:00",1
"20/09/09","19:30",0.0,22.6,89.1,1006.7,276.2,1.0,1.6,272.3,0.00,20.8,25.5,"19:24:32",1
"20/09/09","19:40",0.0,22.5,89.3,1006.9,291.5,1.0,1.7,255.3,0.00,20.7,25.6,"19:35:12",1
"20/09/09","19:50",0.0,22.5,89.4,1007.6,283.2,1.0,2.4,336.3,0.00,20.7,25.5,"19:46:00",1
"20/09/09","20:00",0.0,22.4,89.5,1007.1,297.4,0.8,1.3,314.1,0.00,20.6,25.6,"19:57:52",1
"20/09/09","20:10",0.0,22.4,89.6,1007.1,300.3,1.1,1.6,321.6,0.00,20.6,25.4,"20:02:08",1
"20/09/09","20:20",0.0,22.3,89.8,1006.9,290.4,0.8,1.3,325.0,0.00,20.6,25.3,"20:10:08",1
"20/09/09","20:30",0.0,22.4,89.9,1007.1,285.7,1.0,1.4,302.0,0.00,20.7,25.3,"20:22:48",1
"20/09/09","20:40",0.0,22.4,90.0,1007.4,283.5,0.8,1.2,273.9,0.00,20.7,25.3,"20:38:24",1
"20/09/09","20:50",0.0,22.3,90.1,1007.6,282.1,0.6,1.0,308.6,0.00,20.6,25.3,"20:40:48",1
"20/09/09","21:00",0.0,22.4,90.2,1008.1,303.4,1.2,1.7,321.4,0.00,20.8,25.1,"20:56:24",1
"20/09/09","21:10",0.4,22.3,90.4,1008.1,303.2,1.0,1.8,332.8,0.00,20.7,25.2,"21:07:28",1
"20/09/09","21:20",0.0,22.3,90.5,1007.8,321.5,1.0,1.4,336.4,0.00,20.7,25.2,"21:10:56",1
"20/09/09","21:30",0.0,22.3,90.7,1007.6,300.4,0.7,1.3,331.2,0.00,20.7,25.0,"21:29:52",1
"20/09/09","21:40",0.0,22.3,90.9,1007.6,326.9,1.1,1.8,341.9,0.00,20.8,25.4,"21:37:12",1
"20/09/09","21:50",0.2,22.2,91.2,1007.4,307.8,1.0,1.7,324.9,0.00,20.7,25.1,"21:49:36",1
"20/09/09","22:00",0.0,22.2,91.3,1007.6,271.3,0.6,1.4,339.4,0.00,20.8,25.2,"21:50:56",1
"20/09/09","22:10",0.0,22.1,91.5,1007.6,289.8,0.7,1.1,326.5,0.00,20.7,25.2,"22:08:40",1
"20/09/09","22:20",0.0,22.2,91.6,1007.6,316.0,1.0,2.2,329.1,0.00,20.8,25.2,"22:16:32",1
"20/09/09","22:30",0.0,22.2,91.8,1007.6,310.4,1.1,2.5,343.4,0.00,20.8,25.2,"22:21:20",1
"20/09/09","22:40",0.0,22.1,92.0,1007.4,295.0,0.7,1.2,288.5,0.00,20.8,25.0,"22:39:52",1
"20/09/09","22:50",0.2,22.0,92.1,1007.6,284.0,0.7,1.2,311.6,0.00,20.7,25.0,"22:40:16",1
"20/09/09","23:00",0.0,22.2,92.3,1007.4,332.1,1.0,1.8,337.0,0.00,20.9,25.0,"22:53:04",1
"20/09/09","23:10",0.0,22.1,92.4,1007.4,270.7,0.6,1.1,261.6,0.00,20.8,24.9,"23:07:04",1
"20/09/09","23:20",0.0,22.1,92.5,1007.6,295.4,0.8,1.3,318.3,0.00,20.9,24.9,"23:15:20",1
"20/09/09","23:30",0.0,22.1,92.6,1007.1,299.2,0.7,1.4,329.9,0.00,20.9,25.0,"23:22:48",1
"20/09/09","23:40",0.0,22.1,92.8,1006.9,318.6,1.0,1.2,313.3,0.00,20.9,24.9,"23:31:12",1
"20/09/09","23:50",0.0,22.0,92.8,1006.9,310.3,0.7,1.1,333.0,0.00,20.8,24.8,"23:40:56",1
"20/09/09","24:00",0.0,22.0,92.9,1006.7,292.5,0.6,0.8,304.8,0.00,20.8,25.0,"23:54:08",1
